Regional Weather Roundup
Issued by NWS Bismarck, ND

Home | Current Version | Previous Version | Text Only | Print | Product List | Glossary On
Versions: 1 2 3 4 5 6 7 8 9 10 11 12 13 14 15 16 17 18 19 20 21 22 23 24 25 26 27 28 29 30 31 32 33 34 35 36 37 38 39 40 41 42 43 44 45 46 47 48 49 50
000
ASUS43 KBIS 112110
RWRBIS

NWR BROADCAST TEXT
NATIONAL WEATHER SERVICE BISMARCK ND
400 PM CDT FRI JUL 11 2014

NOTE: "FAIR" INDICATES FEW OR NO CLOUDS BELOW 12,000 FEET WITH NO
SIGNIFICANT WEATHER AND/OR OBSTRUCTIONS TO VISIBILITY.


CITY           SKY/WX    TMP DP  RH WIND       PRES   REMARKS
WILLISTON      MOSUNNY   81  51  35 N13       30.08F
MINOT          SUNNY     76  54  46 W14G21    30.05R
MINOT AFB      SUNNY     75  55  49 NW17G25   30.04R
BISMARCK       MOSUNNY   81  55  40 N7        30.03S
DICKINSON      MOSUNNY   80  56  43 N13       30.07R
GARRISON         N/A     79  59  50 NW10      30.05S
HETTINGER ARPT MOSUNNY   80  56  43 NE8       30.08R
JAMESTOWN      SUNNY     83  52  34 N9        29.99S
CARRINGTON     FAIR      81  57  44 NW9G18    30.01S
CROSBY         FAIR      72  54  53 NW10G20   30.09R
HARVEY         FAIR      75  57  53 W14G22    30.02F
HAZEN          FAIR      79  57  47 N9        30.06S
LINTON         FAIR      81  64  57 N8        30.02R
MANDAN         FAIR      79  57  47 N8        30.05S
RUGBY          FAIR      75  55  50 NW17      30.01R
STANLEY        FAIR      73  55  53 NW8       30.08F
TIOGA          FAIR      73  54  49 NW13G21   30.12S
WATFORD CITY   FAIR      77  54  44 N9        30.07S
$$

CITY           SKY/WX    TMP DP  RH WIND       PRES   REMARKS
GRAND FORKS    MOSUNNY   84  53  34 NW14G22   29.91S
GRAND FORKS AF SUNNY     84  54  34 NW13      29.94R
DEVILS LAKE    SUNNY     81  57  44 W15G23    29.97S
FARGO          MOSUNNY   87  64  46 N10       29.92R
CANDO          FAIR      77  57  50 W14G22    29.98S
CAVALIER       FAIR      81  52  36 W20G25    29.92R
GRAFTON        FAIR      81  55  41 W22G30    29.92R
GWINNER          N/A     88  64  45 N9G16     29.96S
LANGDON        FAIR      77  52  41 W20G25    29.97R
ROLLA            N/A     73  54  49 NW17      30.01R
WALHALLA       FAIR      77  50  38 NW16G31     N/A
$$

CITY           SKY/WX    TMP DP  RH WIND       PRES   REMARKS
ABERDEEN       SUNNY     86  67  52 NE13      29.96R
MOBRIDGE       MOSUNNY   87  64  46 N12G21    29.98S
BUFFALO          N/A     84  55  36 E17       30.01F
RAPID CITY     CLOUDY    79  66  64 NE8       30.06R
GLASGOW        MOSUNNY   78  52  40 NW10G21   30.11F
SIDNEY         SUNNY     81  55  41 N12       30.11S
WOLF POINT     SUNNY     83  51  33 N12       30.09F
GLENDIVE       MOSUNNY   79  54  41 N16       30.11F
MILES CITY     SUNNY     85  50  29 E10       30.07F
BAKER          MOSUNNY   84  53  34 NE12G20   30.11S
$$

CITY           SKY/WX    TMP DP  RH WIND       PRES   REMARKS
BILLINGS       PTSUNNY   78  52  40 NE8G17    30.11F
GREAT FALLS    MOSUNNY   72  51  47 VRB6      30.16F
REGINA         MOSUNNY   72  52  49 NW20G25   30.08R
ESTEVAN        MOSUNNY   72  54  53 W15G24    30.09R
$$



USA.gov is the U.S. government's official web portal to all federal, state and local government web resources and services.